RH
70 69 67 66 64 61 58 56 53 51 50 49 48 49 49 50 52 54 55 55 55 54 53 52 52 53 53 53 53 52 52 51 51 50 49 48 46 46 45 44 43 43 42 42 42 42 42 41 41 42 45 47 48 48 47 49 50 50 51 51 51 53 52 52 53 44 34 37 42 41 45 49 44 42 44 41 37 37 37 34 33 33 33 33 32
63 61 59 56 54 52 50 48 46 45 44 45 46 47 49 52 54 55 55 55 54 54 54 54 54 54 53 53 51 50 49 48 47 46 45 45 44 43 42 41 41 40 40 40 40 40 40 40 44 47 48 48 47 47 48 49 49 49 49 51 50 50 51 50 50 49 41 36 42 46 44 46 45 41 41 42 38 35 36 35 34 34 35 35 35
52 50 48 46 44 43 42 41 41 42 43 45 47 49 52 53 54 54 53 53 53 53 52 52 52 51 50 49 48 47 46 44 44 43 42 41 40 39 39 38 38 37 37 37 37 38 39 42 47 47 44 43 43 43 44 42 42 44 43 43 44 42 43 45 45 47 44 35 34 39 39 40 44 42 39 40 39 37 37 39 39 39 40 41 41
45 43 41 40 39 39 39 40 41 42 44 46 48 50 51 51 51 51 50 50 50 49 49 49 48 48 47 46 45 44 43 42 41 40 39 38 37 36 36 35 35 36 35 35 35 37 40 42 43 42 41 41 41 39 39 38 38 39 39 39 41 40 39 41 43 43 44 37 30 35 40 42 44 42 38 38 39 40 40 41 42 41 40 39 38
45 44 42 41 40 40 40 41 41 43 45 47 49 50 50 50 50 50 50 50 50 49 49 48 47 47 45 44 43 42 41 39 38 38 37 36 35 35 35 35 34 34 33 33 35 38 39 39 39 40 40 39 38 37 36 36 37 37 37 37 37 38 38 38 40 41 42 41 35 34 39 41 41 41 40 40 40 40 40 40 39 37 36 35 36
48 46 45 44 44 43 43 44 45 46 48 50 51 52 53 53 52 52 51 51 50 50 48 47 46 45 44 43 42 41 39 38 37 36 35 34 33 33 33 33 33 32 32 32 34 35 35 35 35 35 35 35 35 34 33 33 33 33 33 33 32 34 35 36 38 39 39 40 37 34 34 37 39 40 39 39 38 37 37 37 36 35 36 37 38
48 47 46 46 46 46 47 49 50 52 53 54 55 55 54 54 53 53 52 51 50 49 48 47 46 45 43 42 41 39 37 36 34 33 32 31 30 30 31 31 31 30 30 31 31 31 30 30 30 30 30 31 30 30 29 28 27 27 26 28 31 33 35 36 37 38 37 37 36 35 34 34 37 38 37 36 36 36 35 35 35 35 36 35 35
48 48 47 48 48 49 51 54 55 56 57 57 56 55 55 54 54 53 52 51 50 49 47 46 44 42 40 38 35 34 32 31 30 29 28 27 29 31 32 31 29 28 28 28 28 28 28 27 27 26 26 26 25 25 25 24 23 24 26 30 33 35 36 37 36 37 37 36 36 35 35 35 36 37 37 36 36 36 35 36 36 35 35 34 34
50 49 50 50 52 53 56 57 58 58 58 57 56 56 55 54 53 52 51 49 47 46 43 41 39 36 34 32 31 30 28 28 28 26 27 30 35 38 36 32 29 29 28 28 27 26 26 25 24 24 23 22 22 21 21 22 23 26 30 33 36 37 36 36 35 35 35 35 35 35 35 35 36 36 36 36 36 36 35 36 36 36 35 35 34
52 52 53 54 56 58 59 59 59 58 58 57 56 55 54 53 51 49 47 44 42 39 36 34 32 31 30 29 28 28 27 27 27 26 28 37 44 43 37 32 29 28 27 26 25 24 23 23 21 21 20 20 20 20 20 21 23 27 29 32 33 32 32 32 32 33 34 34 34 35 34 34 35 35 35 35 35 35 34 34 35 35 35 34 32
54 55 57 58 59 60 59 59 59 58 58 57 55 53 51 49 46 43 40 38 35 33 32 30 30 29 29 29 28 28 28 27 28 27 29 39 45 41 34 29 27 26 25 23 23 22 21 20 19 19 19 19 19 19 20 21 22 23 24 24 25 26 28 31 33 34 35 34 34 34 34 34 33 33 34 35 35 35 34 34 35 35 35 35 33
58 59 60 61 60 60 59 59 58 57 55 53 51 49 46 43 40 37 35 33 31 31 30 29 30 30 29 30 29 28 28 27 27 27 28 37 43 36 29 26 25 25 24 22 21 20 19 19 19 19 19 19 19 20 20 20 22 23 23 23 24 24 26 29 30 31 31 32 33 33 33 33 32 31 32 32 33 34 34 35 35 35 36 36 35
61 61 62 62 61 60 59 57 55 53 51 49 46 43 40 37 35 33 32 31 30 30 30 30 31 30 30 30 28 28 27 25 25 24 24 33 40 31 24 24 25 24 23 22 20 20 19 19 19 19 19 19 19 19 19 21 24 25 25 26 27 28 28 28 28 29 29 29 29 29 29 31 30 30 31 33 37 38 38 37 37 38 39 38 38
62 62 62 61 60 58 55 53 51 50 47 45 41 39 36 34 33 32 32 31 31 32 31 31 31 30 29 29 27 26 25 23 24 22 21 32 36 27 22 24 24 23 22 20 20 19 19 19 18 18 19 18 18 20 22 25 28 29 29 29 30 31 30 30 30 29 29 30 30 30 32 34 34 33 35 39 44 45 43 41 40 42 43 42 42
62 62 61 59 56 54 52 51 49 47 44 41 38 36 34 33 33 33 33 33 33 32 31 31 30 28 27 26 24 24 23 22 23 20 22 31 33 25 23 25 23 22 22 19 20 19 18 19 19 18 19 18 19 22 27 31 33 33 34 33 33 32 32 32 32 31 33 36 37 38 39 41 40 40 41 46 50 52 49 46 46 48 47 45 45
61 60 58 55 54 53 51 50 47 43 40 38 36 35 35 35 35 34 34 33 32 31 29 28 27 25 25 24 23 23 22 21 22 20 22 31 31 24 23 24 22 21 20 19 20 19 18 20 19 19 20 20 20 25 32 36 37 37 37 35 34 34 34 33 33 33 35 39 43 44 44 44 44 45 46 51 56 58 52 48 51 53 50 48 49
59 57 55 54 54 53 50 46 43 40 38 37 36 36 36 36 35 34 33 31 29 28 27 26 25 24 24 24 23 23 22 21 22 20 22 30 31 24 22 22 20 21 21 20 20 20 20 21 21 21 22 22 23 30 37 39 39 39 38 37 36 35 34 35 35 36 37 39 42 43 44 45 46 46 47 51 56 57 51 48 51 53 52 54 54
56 56 56 55 53 49 45 42 39 38 38 38 38 37 36 35 33 31 30 28 27 26 25 24 24 23 23 23 23 23 22 22 23 21 22 30 32 24 20 22 22 21 22 22 22 23 23 24 24 25 25 24 27 35 41 41 41 41 40 38 37 35 35 37 38 39 39 39 39 39 40 41 41 41 42 45 50 53 51 50 52 53 55 59 59
57 57 55 52 48 44 42 40 39 39 39 38 36 35 33 31 30 28 28 26 25 25 24 24 24 23 23 24 23 23 23 22 23 21 21 28 32 26 21 23 24 23 23 24 24 25 26 27 27 27 28 27 28 35 42 43 42 43 42 39 37 36 38 41 42 42 43 44 44 42 42 42 42 41 41 44 50 54 54 54 56 58 59 62 63
58 55 51 46 44 42 40 40 39 38 37 35 33 32 30 29 28 27 26 25 25 24 24 24 24 24 24 24 23 23 23 21 22 22 20 23 29 29 24 24 24 25 25 26 27 28 28 29 30 30 30 30 31 36 42 44 44 44 41 38 37 38 42 45 46 46 46 46 46 45 45 46 46 46 46 47 50 53 55 57 59 61 62 62 62
53 49 45 43 41 40 39 38 37 36 34 32 31 30 28 27 27 26 25 25 24 25 24 25 25 24 24 24 23 22 22 22 22 23 23 23 27 30 27 25 26 27 27 28 29 29 30 30 31 32 32 33 35 40 44 46 45 43 38 36 38 43 47 47 46 44 44 43 43 45 45 45 46 48 49 50 51 52 54 56 58 59 61 61 58
46 43 42 40 39 38 37 36 34 33 31 30 28 28 27 27 26 25 25 25 25 25 26 25 25 24 23 22 22 22 22 23 23 24 25 26 27 29 28 28 29 29 29 29 30 30 31 31 32 33 32 34 40 44 46 45 43 40 37 37 39 43 44 43 43 42 42 42 43 45 46 46 47 49 50 51 52 52 53 54 55 57 58 58 58
42 40 39 38 37 36 35 33 31 30 29 28 27 27 27 26 26 26 26 26 25 25 25 24 23 23 22 22 23 23 23 25 25 26 27 28 29 30 30 31 31 31 30 31 31 31 32 32 33 34 34 37 42 44 44 42 41 39 40 41 41 41 41 42 44 45 45 46 46 47 48 48 48 49 51 52 53 53 53 54 55 56 57 57 58
39 38 37 36 35 33 32 30 29 28 28 28 27 27 27 26 26 26 26 25 25 24 23 23 22 23 23 23 24 25 26 27 28 28 29 30 31 32 32 32 32 32 32 33 33 33 34 35 36 37 38 39 41 42 42 42 42 43 44 45 45 46 47 48 49 51 52 52 52 52 53 52 52 53 53 54 56 55 55 56 57 59 59 59 60
37 36 35 33 32 31 30 29 28 28 28 28 27 27 27 27 26 26 25 24 24 23 22 23 23 24 25 26 26 27 28 29 30 30 31 32 32 33 34 34 34 35 35 35 35 35 36 38 39 40 41 42 43 44 44 45 45 47 48 49 50 51 52 53 54 55 57 57 58 59 59 59 60 60 60 61 62 61 60 60 62 63 64 64 66
35 33 32 31 30 30 29 28 29 28 28 28 28 28 27 26 26 25 24 23 23 23 23 24 25 26 27 28 29 30 31 31 31 32 32 33 34 35 36 36 36 37 37 37 38 38 39 40 41 42 44 45 45 46 47 48 49 50 51 52 54 55 56 57 57 58 59 61 63 63 64 65 66 67 68 69 69 69 68 67 67 68 69 71 73
32 31 30 30 29 29 29 29 29 29 29 28 28 27 26 26 25 24 24 24 24 25 26 27 28 29 30 31 32 32 33 33 33 34 34 35 35 37 38 39 39 40 40 41 41 42 43 44 45 46 47 48 48 49 50 51 52 53 54 55 57 58 59 60 61 62 63 65 66 66 67 69 70 70 72 73 74 74 74 74 73 73 72 74 75
30 30 29 28 28 29 30 30 30 30 29 28 27 26 25 25 25 24 25 25 26 27 29 30 31 32 33 33 34 34 35 35 35 36 36 37 38 39 40 42 43 43 44 45 45 46 47 48 48 49 50 51 51 52 53 54 55 56 57 58 59 60 62 63 64 66 67 68 69 69 69 71 73 73 74 76 77 77 78 78 79 79 78 79 78
28 28 28 29 29 30 30 30 30 29 28 26 26 25 25 25 26 26 27 28 29 31 32 33 34 35 35 35 36 36 37 37 38 39 39 40 41 42 43 45 46 47 48 48 48 48 49 50 51 53 54 54 54 55 56 57 57 58 59 60 61 62 64 65 66 68 70 72 73 72 72 73 75 76 77 78 80 81 81 82 82 83 84 85 84
28 28 29 30 30 30 30 30 29 27 26 25 25 26 26 26 27 28 30 31 33 34 36 36 37 37 37 37 38 39 40 40 41 42 43 43 44 45 46 47 48 49 50 51 50 50 51 52 54 55 56 57 57 58 59 59 59 60 62 63 63 65 66 67 68 70 73 76 76 75 75 76 77 78 79 81 83 84 85 85 85 86 86 87 88
29 29 30 30 30 30 29 29 27 26 26 25 26 27 28 29 30 31 33 35 36 38 39 39 39 39 39 40 41 42 43 43 44 45 45 45 46 46 47 49 50 51 52 53 52 52 54 55 56 57 58 59 60 60 61 61 60 62 64 65 66 68 68 68 70 72 76 79 80 79 79 79 80 82 83 83 84 86 87 88 88 88 89 90 91
30 30 30 30 30 29 28 26 26 26 26 26 27 28 30 31 33 34 36 38 39 40 41 41 41 42 42 43 44 45 45 45 46 46 46 46 47 48 49 50 51 53 54 54 54 54 55 56 57 58 60 60 62 62 63 63 63 64 66 68 69 71 70 70 72 75 78 81 83 83 83 83 84 85 86 86 86 87 88 89 90 91 92 94 94
31 31 30 29 28 27 26 26 26 26 27 28 29 30 32 34 35 37 39 40 41 42 42 43 44 45 45 46 46 47 47 47 47 48 48 48 49 49 49 50 52 53 54 55 55 56 57 58 59 60 61 62 64 65 65 65 65 66 67 69 71 72 73 73 75 78 80 82 84 85 86 86 86 87 87 87 88 88 89 90 92 93 95 96 96
31 30 29 29 27 27 26 27 27 28 29 30 32 33 35 36 38 40 41 42 43 43 43 44 45 46 47 48 47 47 48 48 48 49 49 49 50 50 50 51 52 53 54 55 55 56 58 59 61 62 64 65 67 67 67 67 67 67 69 71 73 73 74 75 77 79 82 83 84 85 85 86 86 86 87 87 88 89 91 92 93 94 95 97 98
31 30 29 28 27 27 27 28 29 30 31 33 34 36 37 39 40 42 44 44 45 45 45 45 47 48 48 48 47 47 47 48 49 49 49 49 50 51 51 52 52 53 54 55 56 56 58 60 62 64 67 69 70 70 70 69 69 70 71 73 75 76 76 77 78 81 83 83 84 85 86 86 87 88 88 88 88 90 92 94 95 96 96 98 100
30 29 28 27 27 28 29 30 31 32 34 35 36 38 39 41 43 44 46 47 47 48 48 48 48 49 49 49 47 46 46 47 48 49 49 50 51 52 52 52 52 53 54 55 57 57 57 59 62 65 69 72 73 73 73 72 72 72 74 76 76 78 78 78 79 82 83 85 86 87 89 89 90 91 91 91 92 93 94 96 98 98 98 100 101
29 28 27 28 29 30 31 32 34 35 36 37 39 40 41 43 45 46 48 49 49 50 51 51 50 51 51 50 49 46 44 45 47 49 51 52 53 54 54 54 54 55 56 57 58 58 58 59 61 65 70 74 75 75 75 74 74 74 76 77 78 79 79 80 81 82 84 86 88 90 91 91 91 92 92 92 93 94 95 97 99 100 100 100 100
28 28 28 30 31 32 34 35 36 38 39 40 41 42 43 45 47 48 50 51 52 52 52 53 53 53 53 53 52 50 47 47 48 50 52 54 55 56 57 58 58 59 60 60 61 60 59 59 61 65 70 75 77 77 78 77 76 76 77 79 79 80 81 82 83 84 86 88 89 90 91 91 91 91 91 92 92 93 95 97 99 99 100 100 100
29 29 31 32 33 35 36 37 39 41 42 43 44 46 47 48 50 51 52 53 53 54 54 54 54 54 55 55 55 53 50 49 49 51 53 55 57 58 60 62 63 64 64 64 63 62 62 62 63 66 71 76 79 80 80 80 78 77 78 79 80 81 82 84 86 87 88 89 90 90 91 91 92 93 93 93 93 93 94 97 98 98 99 100 100
31 32 34 35 36 38 39 40 42 44 45 47 49 50 51 52 53 53 54 54 54 54 54 53 53 54 55 56 56 55 53 51 51 52 54 56 58 60 62 65 67 69 69 68 67 66 65 65 66 68 73 77 81 82 83 82 81 79 79 80 81 82 84 86 88 88 89 89 90 90 91 92 93 94 94 94 94 94 95 96 97 98 99 99 100
33 35 36 38 39 41 42 44 46 47 49 51 52 53 54 55 55 54 54 53 52 52 51 51 51 52 54 55 56 57 55 53 52 54 55 58 61 63 65 67 70 71 72 71 70 69 68 68 68 70 74 79 82 84 85 85 83 81 80 82 82 83 85 87 89 90 90 90 91 92 92 93 93 95 95 95 96 96 96 97 98 98 99 99 100
36 38 40 41 43 45 47 49 50 51 52 53 52 52 52 52 51 50 49 48 48 48 48 48 49 50 52 53 55 56 55 53 53 54 56 59 63 65 67 69 71 72 73 73 72 72 71 70 70 71 75 80 84 85 87 87 85 83 82 82 84 85 85 87 89 91 90 91 92 93 92 93 94 96 98 98 98 98 98 99 99 99 99 99 99
39 42 44 45 47 49 49 50 50 50 51 50 50 49 49 48 48 48 47 47 48 48 48 48 48 49 50 51 53 55 56 55 55 55 56 60 65 68 70 71 72 72 73 73 74 74 74 73 73 73 75 80 84 86 88 88 86 84 83 84 85 86 86 87 90 91 91 92 93 93 92 93 95 97 98 97 97 97 98 98 99 99 100 100 100
44 45 46 47 48 49 50 50 50 49 49 49 48 48 48 48 48 49 49 49 50 50 50 50 50 50 50 51 52 54 55 57 58 58 60 63 67 70 72 73 73 73 73 73 74 76 76 76 75 75 76 80 84 87 88 89 87 85 84 85 86 87 87 88 89 90 91 93 94 93 93 93 95 96 96 95 96 96 97 98 98 99 99 100 100
45 46 47 48 48 48 47 47 46 45 44 43 43 43 44 45 45 47 48 49 50 51 52 52 52 52 52 52 53 54 56 58 61 63 65 66 68 71 74 76 76 75 73 73 73 74 76 77 76 75 77 80 84 86 88 90 88 86 85 86 87 88 89 90 90 90 92 94 93 93 93 94 94 95 95 95 96 97 97 97 98 99 99 100 100
47 47 47 45 43 41 40 39 38 38 38 39 40 41 43 44 45 46 48 49 51 53 55 56 57 57 56 55 55 55 57 60 64 67 70 72 72 73 75 78 79 78 75 72 71 71 73 76 76 75 76 79 83 86 89 90 89 87 86 87 88 89 90 91 91 91 92 93 93 92 93 93 93 95 96 98 99 99 99 99 99 99 100 100 100
44 42 40 38 37 37 37 38 40 41 42 43 44 45 46 47 48 49 49 50 51 52 54 56 60 62 63 61 59 57 59 62 67 71 75 76 76 75 75 77 79 79 76 73 69 68 70 73 74 74 74 77 82 86 88 89 88 87 87 89 90 90 91 91 91 92 94 94 93 92 92 92 94 96 98 99 100 100 100 101 101 101 101 101 101
39 38 38 39 40 42 43 44 45 46 47 48 48 49 49 50 50 51 51 51 51 51 51 53 56 61 66 68 67 64 62 64 68 73 77 80 80 77 75 76 78 78 77 73 69 66 66 69 72 73 74 76 80 85 88 89 88 87 87 89 91 91 92 92 92 93 94 94 93 92 92 93 95 97 98 98 99 100 101 102 102 102 102 103 103
41 42 44 45 45 46 47 48 49 49 50 51 52 52 52 52 52 52 53 53 52 52 51 51 52 56 62 69 74 76 72 69 69 72 78 82 83 81 77 75 76 77 76 73 68 65 64 66 70 72 73 75 79 84 88 89 88 87 86 89 91 92 93 93 92 92 93 93 92 91 91 93 96 98 97 98 99 99 99 100 101 101 101 101 102
46 46 46 47 48 49 50 51 51 52 53 54 54 54 54 54 54 55 54 54 53 52 51 52 52 54 57 64 72 79 81 79 76 76 79 82 84 84 80 76 75 76 75 72 67 63 62 63 67 70 72 74 77 82 87 89 89 87 86 88 90 92 92 93 92 92 91 91 90 90 90 92 96 98 98 99 99 99 98 99 100 99 98 98 98
47 47 48 49 50 51 51 52 52 53 53 53 54 54 55 55 54 54 54 53 53 52 51 52 52 55 58 62 68 74 80 84 84 85 86 87 88 87 83 78 75 75 75 71 66 63 62 62 64 68 72 73 76 81 86 89 89 88 87 87 89 90 91 91 91 91 90 89 88 89 90 93 96 98 99 99 99 99 98 99 99 98 97 97 96